Miscellaneous Local Product
Issued by NWS North Platte, NE

Home | Current Version | Previous Version | Graphics & Text | Print | Product List | Glossary On
Versions: 1 2 3 4 5 6 7 8 9 10 11 12 13 14 15 16 17 18 19 20 21 22 23 24 25 26 27 28 29 30 31 32 33 34 35 36 37 38 39 40 41 42 43 44 45 46 47 48 49 50
000
AXUS43 KLBF 200410
MISLBF


WESTERN AND NORTH CENTRAL NEBRASKA HOURLY WEATHER ROUNDUP
NATIONAL WEATHER SERVICE NORTH PLATTE NE
1100 PM CDT FRI SEP 19 2014

***STATIONS NOT REPORTING VARIABLES SUCH AS SKY/WEATHER OR
PRESSURE ARE PROVIDED BY THE NEBRASKA DEPARTMENT OF
ROADS...RAWS...AND APRS NETWORKS...AND ARE NOT UNDER
NATIONAL WEATHER SERVICE QUALITY CONTROL***

...OBSERVATIONS IN AND NEAR THE EASTERN PANHANDLE OF NEBRASKA...

CITY           SKY/WX    TMP DP  RH WIND       PRES   REMARKS
PINE RIDGE     CLEAR     57  53  86 E5        29.95R
CHADRON        CLEAR     64  53  67 N6        29.95R
ALLIANCE       PTCLDY    66  51  58 NE6       29.94R
SIDNEY         MOCLDY    65  56  72 SW8       29.98R
WHITECLAY        N/A     57  50  77 CALM        N/A
RUSHVILLE        N/A     61  49  65 NE12        N/A
CRESCENT LAKE    N/A     70  49  46 NE6         N/A
LISCO            N/A     76  55  48 SE5         N/A
BIG SPRINGS      N/A     71  58  64 CALM        N/A
$$

...OBSERVATIONS IN NORTH CENTRAL NEBRASKA...

CITY           SKY/WX    TMP DP  RH WIND       PRES   REMARKS
VALENTINE      CLEAR     62  56  80 W7        29.86R
THEDFORD       MOCLDY    69  59  71 CALM      29.88F
AINSWORTH      PTCLDY    63  57  83 S5        29.85S
O`NEILL        PTCLDY    70  64  81 NW6       29.81S
ORD            PTCLDY    75  61  61 SW8       29.81R
BROKEN BOW     MOCLDY    76  61  59 SW6       29.85R
SPRINGVIEW       N/A     65  59  81 CALM        N/A
ROSE             N/A     77  64  64 CALM        N/A
NEWPORT          N/A     62  60  91 S6          N/A
COMSTOCK         N/A     76  66  71 W3          N/A
CHAMBERS         N/A     68  62  80 CALM        N/A
$$

...OBSERVATIONS IN SOUTHWEST NEBRASKA AND FAR NORTHEAST COLORADO...

CITY           SKY/WX    TMP DP  RH WIND       PRES   REMARKS
WRAY           FAIR      74  56  53 SW8       29.95R
HOLYOKE        FAIR      72  57  60 CALM      29.91R
IMPERIAL       CLOUDY    75  59  57 S15       29.88S
OGALLALA       CLOUDY    66  60  80 CALM      29.88S
NORTH PLATTE   CLOUDY    72  60  66 W5        29.86R
MCCOOK         MOCLDY    75  58  55 S10       29.88R
LEXINGTON      PTCLDY    76  60  58 S14G21    29.85S
PAXTON           N/A     70  60  71 CALM        N/A
SUTHERLAND       N/A     76  59  55 CALM        N/A
BRADY            N/A     78  61  55 SE3         N/A
GOTHENBURG       N/A     80  57  44 S8          N/A
CALLAWAY         N/A     70  63  79 S7          N/A
$$

...SOME WEATHER OBSERVATIONS FROM AROUND THE REGION...

CITY           SKY/WX    TMP DP  RH WIND       PRES   REMARKS
DENVER         PTCLDY    66  48  52 E7        30.05R
LARAMIE        CLEAR     59  40  49 SW6       30.20R
CHEYENNE       MOCLDY    68  41  37 NW3       30.11R
SCOTTSBLUFF    PTCLDY    65  51  60 NW3       29.96R
RAPID CITY     PTCLDY    67  48  50 NW8       29.96R
PIERRE         MOCLDY    72  52  49 NW13      29.80R
WINNER         FAIR      72  56  57 W3        29.82R
SIOUX FALLS    CLOUDY    72  65  78 NW6       29.73R
OMAHA          PTCLDY    75  68  78 S17       29.81S
GRAND ISLAND   CLEAR     78  62  57 S20G28    29.83S
KANSAS CITY    CLEAR     69  67  93 S9        29.95S
WICHITA        PTCLDY    73  68  84 S12       29.95S
HAYS           PTCLDY    72  59  64 S9        29.93R
LIBERAL        CLEAR     72  57  60 S7        29.99S
GOODLAND       CLEAR     69  60  73 S13       29.95R
$$



USA.gov is the U.S. government's official web portal to all federal, state and local government web resources and services.